Weather History for Pittsburg, KS

Change the Weather History Date:

Tuesday, April 23, 2013

  Actual Average (KJLN) Record (KJLN)
Temperature  
Mean Temperature 46 °F 61 °F  
Max Temperature 56 °F 72 °F 90 °F (1989)
Min Temperature 37 °F 49 °F 35 °F (1956)
Degree Days  
Heating Degree Days 18 6  
Month to date heating degree days 205  
Since 1 July heating degree days 3967  
Cooling Degree Days 0 2  
Month to date cooling degree days 30  
Year to date cooling degree days 40  
Moisture  
Dew Point 44 °F    
Average Humidity 100    
Maximum Humidity 100    
Minimum Humidity 99    
Precipitation  
Precipitation 0.01 in 0.18 in 1.49 in (2004)
Month to date precipitation 3.20  
Year to date precipitation 10.97  
Sea Level Pressure  
Sea Level Pressure 30.02 in    
Wind  
Wind Speed 10 mph (North)    
Max Wind Speed 23 mph    
Max Gust Speed 28 mph    
Visibility 6 miles    
Events Thunderstorm    
T = Trace of Precipitation, MM = Missing Value Source: NWS Daily Summary

Daily Weather History Graph

Daily Weather History Graph

Search for Another Location

Airport:

Trip Planner

Search our weather history database for the weather conditions in past years. The results will help you decide how hot, cold, wet, or windy it might be!

Date:

Astronomy

Apr. 23, 2013 Rise Set
Actual Time 6:33 AM CDT 8:01 PM CDT
Civil Twilight 6:05 AM CDT 8:29 PM CDT
Nautical Twilight 5:32 AM CDT 9:02 PM CDT
Astronomical Twilight 4:57 AM CDT 9:37 PM CDT
Moon 5:59 PM CDT (4/23) 4:58 AM CDT (4/23)
Length of Visible Light 14h 23m
Length of Day
13h 28m
Waxing Gibbous, 94% of the Moon is Illuminated
Apr 23
Waxing Gibbous
Apr 25
Full
May 2
Last Quarter
May 9
New
May 17
First Quarter

Hourly Weather History & Observations

Time (CDT) Temp. Windchill Dew Point Humidity Pressure Visibility Wind Dir Wind Speed Gust Speed Precip Events Conditions
12:15 AM 56.7 °F - 56.8 °F 100% 29.96 in 5.0 mi Calm Calm - N/A   Overcast
12:35 AM 55.8 °F - 55.9 °F 100% 29.96 in 7.0 mi North 3.5 mph - N/A   Mostly Cloudy
12:55 AM 55.8 °F - 56.1 °F 100% 29.96 in 7.0 mi North 4.6 mph - N/A   Mostly Cloudy
1:15 AM 55.8 °F - 55.9 °F 100% 29.95 in 7.0 mi Calm Calm - N/A   Overcast
1:35 AM 56.7 °F - 56.7 °F 100% 29.96 in 7.0 mi North 6.9 mph - N/A   Overcast
1:55 AM 56.8 °F - 56.8 °F 100% 29.93 in 7.0 mi NNE 10.4 mph - N/A   Overcast
2:15 AM 55.8 °F - 55.9 °F 100% 29.90 in 10.0 mi NE 10.4 mph - N/A   Overcast
2:35 AM 55.8 °F - - N/A% 29.92 in 10.0 mi North 8.1 mph - N/A   Overcast
2:55 AM 55.8 °F - - N/A% 29.90 in 7.0 mi NE 13.8 mph - N/A   Overcast
3:15 AM 55.8 °F - - N/A% 29.89 in 7.0 mi NNE 15.0 mph 19.6 mph N/A   Overcast
3:35 AM 55.2 °F - - N/A% 29.90 in 5.0 mi NE 12.7 mph 19.6 mph N/A   Overcast
3:55 AM 53.2 °F - - N/A% 29.91 in 4.0 mi NNE 10.4 mph 21.9 mph N/A   Overcast
4:15 AM 52.5 °F - - N/A% 29.94 in 4.0 mi North 12.7 mph 19.6 mph N/A   Overcast
4:35 AM 50.9 °F - - N/A% 29.93 in 5.0 mi North 12.7 mph - N/A Thunderstorm Overcast
4:55 AM 50.9 °F - - N/A% 29.91 in 5.0 mi NNE 18.4 mph - N/A Thunderstorm Overcast
5:15 AM 49.3 °F - - N/A% 29.90 in 5.0 mi North 19.6 mph 25.3 mph N/A Thunderstorm Overcast
5:35 AM 46.6 °F - - N/A% 29.94 in 7.0 mi North 15.0 mph 26.5 mph 0.01 in Thunderstorm Thunderstorm
5:55 AM 44.8 °F 37.7 °F 44.8 °F 100% 29.97 in 4.0 mi North 16.1 mph 25.3 mph 0.01 in Thunderstorm Thunderstorm
6:15 AM 42.8 °F 34.3 °F 43.0 °F 100% 29.95 in 10.0 mi NNE 19.6 mph 25.3 mph N/A Thunderstorm Overcast
6:35 AM 41.9 °F 34.6 °F 41.9 °F 100% 29.97 in 10.0 mi North 13.8 mph 23.0 mph N/A   Overcast
6:55 AM 42.4 °F 37.0 °F 42.4 °F 100% 29.95 in 10.0 mi ENE 9.2 mph - N/A   Overcast
7:15 AM 43.0 °F 37.7 °F 43.2 °F 100% 29.96 in 10.0 mi NNE 9.2 mph 18.4 mph N/A   Overcast
7:35 AM 42.8 °F 36.2 °F 43.0 °F 100% 29.95 in 10.0 mi NNE 12.7 mph 19.6 mph N/A   Overcast
7:55 AM 41.9 °F 34.6 °F 41.9 °F 100% 29.96 in 10.0 mi NNE 13.8 mph 18.4 mph N/A   Overcast
8:15 AM 41.9 °F 34.6 °F 41.9 °F 100% 29.98 in 10.0 mi North 13.8 mph 19.6 mph N/A   Overcast
8:35 AM 41.7 °F 32.1 °F 41.7 °F 100% 29.97 in 10.0 mi NNE 23.0 mph 27.6 mph N/A   Overcast
8:55 AM 40.6 °F 33.0 °F 40.8 °F 100% 29.98 in 7.0 mi NNE 13.8 mph 17.3 mph N/A   Overcast
9:15 AM 40.5 °F 32.5 °F 40.6 °F 100% 29.99 in 7.0 mi NNE 15.0 mph 23.0 mph N/A   Overcast
9:35 AM 40.5 °F 32.5 °F 40.6 °F 100% 30.01 in 10.0 mi NNE 15.0 mph 21.9 mph N/A   Overcast
9:55 AM 40.5 °F 33.2 °F 40.6 °F 100% 30.00 in 3.0 mi NNE 12.7 mph 23.0 mph N/A   Overcast
10:15 AM - - - N/A% 30.00 in 3.0 mi NNE 18.4 mph 27.6 mph N/A   Overcast
10:35 AM 38.7 °F 30.1 °F 38.8 °F 100% 30.00 in 2.5 mi NNE 15.0 mph 26.5 mph N/A   Overcast
10:55 AM 38.5 °F 31.1 °F 38.7 °F 100% 30.01 in 1.8 mi NNE 11.5 mph 23.0 mph N/A   Overcast
11:15 AM 38.5 °F 30.3 °F 38.7 °F 100% 30.02 in 2.5 mi NNE 13.8 mph 21.9 mph N/A   Overcast
11:35 AM 38.5 °F 30.3 °F 38.7 °F 100% 30.02 in 1.8 mi NNE 13.8 mph 21.9 mph N/A   Overcast
11:55 AM 38.3 °F 29.7 °F 38.5 °F 100% 30.02 in 2.5 mi NNE 15.0 mph 25.3 mph N/A   Overcast
12:15 PM - - - N/A% 30.02 in 2.0 mi NNE 18.4 mph 24.2 mph N/A   Overcast
12:35 PM - - - N/A% 30.02 in 3.0 mi NNE 15.0 mph 25.3 mph N/A   Overcast
12:55 PM - - - N/A% 30.03 in 2.5 mi NNE 11.5 mph 20.7 mph N/A   Overcast
1:15 PM - - - N/A% 30.02 in 2.5 mi North 10.4 mph 19.6 mph N/A   Overcast
1:35 PM 38.3 °F 31.4 °F - N/A% 30.03 in 2.0 mi North 10.4 mph 17.3 mph N/A   Overcast
1:55 PM 38.1 °F 29.8 °F - N/A% 30.03 in 2.5 mi North 13.8 mph 18.4 mph N/A   Overcast
2:15 PM - - - N/A% 30.03 in 3.0 mi North 11.5 mph 18.4 mph N/A   Overcast
2:35 PM - - - N/A% 30.03 in 3.0 mi North 10.4 mph 20.7 mph N/A   Overcast
2:55 PM - - - N/A% 30.04 in 3.0 mi North 12.7 mph 18.4 mph N/A   Overcast
3:15 PM - - - N/A% 30.04 in 5.0 mi NNE 11.5 mph 17.3 mph N/A   Overcast
3:35 PM - - - N/A% 30.04 in 3.0 mi North 12.7 mph 18.4 mph N/A   Overcast
3:55 PM - - - N/A% 30.04 in 5.0 mi North 12.7 mph 19.6 mph N/A   Overcast
4:15 PM - - - N/A% 30.04 in 5.0 mi North 10.4 mph 17.3 mph N/A   Overcast
4:35 PM - - - N/A% 30.04 in 5.0 mi North 13.8 mph 19.6 mph N/A   Overcast
4:55 PM - - - N/A% 30.05 in 4.0 mi North 13.8 mph 19.6 mph N/A   Overcast
5:15 PM - - - N/A% 30.05 in 3.0 mi North 6.9 mph 18.4 mph N/A   Overcast
5:35 PM - - - N/A% 30.05 in 4.0 mi North 9.2 mph - N/A   Overcast
5:55 PM - - - N/A% 30.06 in 3.0 mi North 8.1 mph 20.7 mph N/A   Overcast
6:15 PM - - - N/A% 30.07 in 4.0 mi North 9.2 mph 17.3 mph N/A   Overcast
6:35 PM - - - N/A% 30.07 in 3.0 mi North 9.2 mph - N/A   Overcast
6:55 PM - - - N/A% 30.07 in 4.0 mi North 8.1 mph - N/A   Overcast
7:15 PM - - - N/A% 30.08 in 3.0 mi North 10.4 mph 16.1 mph N/A   Overcast
7:35 PM - - - N/A% 30.09 in 4.0 mi North 9.2 mph 17.3 mph N/A   Overcast
7:55 PM 37.9 °F 30.9 °F 38.1 °F 100% 30.09 in 7.0 mi North 10.4 mph 18.4 mph N/A   Overcast
8:15 PM 37.6 °F 30.0 °F 37.8 °F 100% 30.10 in 7.0 mi North 11.5 mph 16.1 mph N/A   Overcast
8:35 PM 37.8 °F 31.8 °F 38.1 °F 100% 30.11 in 10.0 mi North 8.1 mph - N/A   Overcast
8:55 PM - - - N/A% 30.12 in 10.0 mi North 8.1 mph - N/A   Overcast
9:15 PM - - - N/A% 30.13 in 10.0 mi North 9.2 mph - N/A   Overcast
9:35 PM - - - N/A% 30.14 in 10.0 mi NNW 9.2 mph - N/A   Overcast
9:55 PM - - - N/A% 30.16 in 10.0 mi North 9.2 mph 16.1 mph N/A   Overcast
10:15 PM - - - N/A% 30.16 in 10.0 mi North 9.2 mph - N/A   Overcast
10:35 PM - - - N/A% 30.16 in 10.0 mi NNW 8.1 mph - N/A   Overcast
10:55 PM - - - N/A% 30.16 in 10.0 mi NNW 10.4 mph - N/A   Overcast
11:15 PM - - - N/A% 30.16 in 10.0 mi NNW 9.2 mph - N/A   Overcast
11:35 PM - - - N/A% 30.16 in 10.0 mi NNW 8.1 mph - N/A   Overcast
11:55 PM 37.9 °F 32.7 °F 37.6 °F 99% 30.15 in 10.0 mi NNW 6.9 mph - N/A   Overcast